Weather History for Nebraska City, NE

Change the Weather History Date:

Wednesday, February 12, 2014

  Actual Average (KSDA) Record (KSDA)
Temperature  
Mean Temperature 22 °F -  
Max Temperature 28 °F 37 °F 64 °F (1984)
Min Temperature 16 °F 18 °F -13 °F (1955)
Degree Days  
Heating Degree Days 43    
Moisture  
Dew Point 17 °F    
Average Humidity 78    
Maximum Humidity 89    
Minimum Humidity 64    
Precipitation  
Precipitation 0.00 in - - ()
Sea Level Pressure  
Sea Level Pressure 30.02 in    
Wind  
Wind Speed 11 mph (SW)    
Max Wind Speed 20 mph    
Max Gust Speed 24 mph    
Visibility 8 miles    
Events Snow    
Averages and records for this station are not official NWS values.
T = Trace of Precipitation, MM = Missing Value Source: NWS Daily Summary

Daily Weather History Graph

Daily Weather History Graph

Search for Another Location

Airport:

Trip Planner

Search our weather history database for the weather conditions in past years. The results will help you decide how hot, cold, wet, or windy it might be!

Date:

Astronomy

Feb. 12, 2014 Rise Set
Actual Time 7:20 AM CST 5:54 PM CST
Civil Twilight 6:52 AM CST 6:23 PM CST
Nautical Twilight 6:20 AM CST 6:55 PM CST
Astronomical Twilight 5:48 AM CST 7:27 PM CST
Moon 4:09 PM CST (2/12) 5:38 AM CST (2/12)
Length of Visible Light 11h 30m
Length of Day
10h 33m
Waxing Gibbous, 95% of the Moon is Illuminated
Feb 12
Waxing Gibbous
Feb 14
Full
Feb 22
Last Quarter
Mar 1
New
Mar 8
First Quarter

Hourly Weather History & Observations

Time (CST) Temp. Windchill Dew Point Humidity Pressure Visibility Wind Dir Wind Speed Gust Speed Precip Events Conditions
12:15 AM 16.3 °F 0.5 °F 6.4 °F 65% 30.11 in 10.0 mi South 17.3 mph - N/A   Overcast
12:35 AM 16.7 °F 1.0 °F 6.6 °F 65% 30.11 in 10.0 mi SSW 17.3 mph - N/A   Overcast
12:55 AM 17.2 °F 0.8 °F 6.8 °F 64% 30.09 in 10.0 mi South 19.6 mph 24.2 mph N/A   Overcast
1:15 AM 17.2 °F 1.2 °F 7.2 °F 65% 30.08 in 10.0 mi South 18.4 mph - N/A   Overcast
1:35 AM 17.6 °F 2.2 °F 7.7 °F 65% 30.08 in 10.0 mi SSW 17.3 mph - N/A   Overcast
1:55 AM 17.6 °F 3.2 °F 8.1 °F 66% 30.08 in 10.0 mi SSW 15.0 mph - N/A   Overcast
2:15 AM 18.1 °F 5.6 °F 8.6 °F 66% 30.08 in 10.0 mi SSW 11.5 mph - N/A   Overcast
2:35 AM 18.0 °F 5.4 °F 9.1 °F 68% 30.07 in 10.0 mi South 11.5 mph - N/A   Mostly Cloudy
2:55 AM 18.3 °F 5.2 °F 9.5 °F 68% 30.05 in 10.0 mi South 12.7 mph - N/A   Mostly Cloudy
3:15 AM 18.7 °F 6.3 °F 10.2 °F 70% 30.05 in 10.0 mi South 11.5 mph - N/A   Overcast
3:35 AM 19.4 °F 7.2 °F 10.9 °F 70% 30.05 in 10.0 mi SSW 11.5 mph - N/A   Overcast
3:55 AM 19.9 °F 7.3 °F 11.1 °F 69% 30.04 in 10.0 mi SSW 12.7 mph - N/A   Overcast
4:15 AM 19.9 °F 7.3 °F 11.3 °F 69% 30.04 in 10.0 mi South 12.7 mph - N/A   Overcast
4:35 AM 19.8 °F 9.1 °F 11.7 °F 71% 30.04 in 10.0 mi SSW 9.2 mph - N/A   Overcast
4:55 AM 19.4 °F 9.5 °F 11.7 °F 72% 30.04 in 10.0 mi South 8.1 mph - N/A   Mostly Cloudy
5:15 AM 19.2 °F 8.4 °F 11.8 °F 73% 30.04 in 10.0 mi South 9.2 mph - N/A   Scattered Clouds
5:35 AM 19.4 °F 9.5 °F 12.4 °F 74% 30.03 in 10.0 mi South 8.1 mph - N/A   Mostly Cloudy
5:55 AM 19.8 °F 9.1 °F 12.9 °F 75% 30.02 in 10.0 mi SSW 9.2 mph - N/A   Overcast
6:15 AM 19.9 °F 10.1 °F 13.1 °F 75% 30.02 in 10.0 mi South 8.1 mph - N/A   Mostly Cloudy
6:35 AM 19.4 °F 9.5 °F 13.5 °F 78% 30.02 in 10.0 mi SSW 8.1 mph - N/A   Mostly Cloudy
6:55 AM 20.1 °F 11.3 °F 14.4 °F 78% 30.03 in 10.0 mi SSW 6.9 mph - N/A   Mostly Cloudy
7:15 AM 21.4 °F 11.9 °F 15.6 °F 78% 30.03 in 10.0 mi SW 8.1 mph - N/A   Overcast
7:35 AM 22.1 °F 13.7 °F 16.5 °F 79% 30.03 in 10.0 mi SW 6.9 mph - N/A   Overcast
7:55 AM 21.7 °F 15.5 °F 16.2 °F 79% 30.03 in 10.0 mi WSW 4.6 mph - N/A   Mostly Cloudy
8:15 AM 21.9 °F 14.5 °F 16.5 °F 80% 30.04 in 10.0 mi WSW 5.8 mph - N/A   Mostly Cloudy
8:35 AM 22.8 °F 15.5 °F 16.9 °F 78% 30.04 in 10.0 mi WSW 5.8 mph - N/A   Overcast
8:55 AM 23.5 °F 16.4 °F 17.4 °F 77% 30.04 in 10.0 mi WSW 5.8 mph - N/A   Overcast
9:15 AM 24.4 °F 17.5 °F 18.1 °F 77% 30.04 in 10.0 mi WNW 5.8 mph - N/A   Mostly Cloudy
9:35 AM 25.5 °F 17.8 °F 19.0 °F 76% 30.04 in 10.0 mi North 6.9 mph - N/A   Mostly Cloudy
9:55 AM 26.1 °F 15.0 °F 19.4 °F 76% 30.04 in 10.0 mi North 12.7 mph - N/A   Mostly Cloudy
10:15 AM 25.5 °F 14.3 °F 19.9 °F 79% 30.05 in 1.8 mi North 12.7 mph - N/A Snow Light Snow
10:35 AM 24.6 °F 13.8 °F 21.6 °F 88% 30.07 in 0.8 mi NNW 11.5 mph - N/A Snow Light Snow
10:55 AM 24.4 °F 13.5 °F 21.4 °F 88% 30.07 in 1.5 mi North 11.5 mph - N/A Snow Light Snow
11:15 AM 24.6 °F 12.2 °F 21.2 °F 87% 30.07 in 2.5 mi North 15.0 mph - N/A Snow Light Snow
11:35 AM 25.0 °F 13.1 °F 21.4 °F 86% 30.07 in 2.0 mi North 13.8 mph - N/A Snow Light Snow
11:55 AM 26.2 °F 16.4 °F 22.3 °F 85% 30.07 in 4.0 mi North 10.4 mph - N/A   Overcast
12:15 PM 26.4 °F 14.0 °F 22.1 °F 84% 30.07 in 5.0 mi North 16.1 mph - N/A   Overcast
12:35 PM 25.7 °F 13.1 °F 21.2 °F 83% 30.07 in 7.0 mi North 16.1 mph - N/A   Overcast
12:55 PM 25.9 °F 14.3 °F 21.2 °F 82% 30.07 in 7.0 mi North 13.8 mph - N/A   Overcast
1:15 PM 25.9 °F 14.3 °F 20.7 °F 81% 30.07 in 7.0 mi North 13.8 mph - N/A   Overcast
1:35 PM 26.2 °F 16.4 °F 20.8 °F 80% 30.05 in 7.0 mi North 10.4 mph - N/A   Overcast
1:55 PM 26.4 °F 16.6 °F 21.0 °F 80% 30.06 in 7.0 mi North 10.4 mph - N/A   Overcast
2:15 PM 27.1 °F 18.2 °F 21.4 °F 79% 30.04 in 7.0 mi North 9.2 mph - N/A   Overcast
2:35 PM 27.9 °F 19.8 °F 21.7 °F 78% 30.03 in 7.0 mi NNE 8.1 mph - N/A   Mostly Cloudy
2:55 PM 28.4 °F 19.7 °F 21.6 °F 76% 30.04 in 7.0 mi North 9.2 mph - N/A   Mostly Cloudy
3:15 PM 28.2 °F 19.5 °F 21.6 °F 76% 30.04 in 10.0 mi NNE 9.2 mph - N/A   Overcast
3:35 PM 27.9 °F 21.5 °F 21.2 °F 76% 30.04 in 10.0 mi NE 5.8 mph - N/A   Mostly Cloudy
3:55 PM 27.5 °F - 21.0 °F 77% 30.03 in 10.0 mi Calm Calm - N/A   Mostly Cloudy
4:15 PM 28.0 °F 22.8 °F 21.2 °F 76% 30.02 in 10.0 mi North 4.6 mph - N/A   Overcast
4:35 PM 28.0 °F - 21.4 °F 76% 30.01 in 10.0 mi Calm Calm - N/A   Overcast
4:55 PM 28.0 °F - 21.7 °F 77% 30.00 in 10.0 mi Calm Calm - N/A   Overcast
5:15 PM 27.5 °F - 21.2 °F 77% 29.99 in 10.0 mi Calm Calm - N/A   Overcast
5:35 PM 27.5 °F - 21.2 °F 77% 29.99 in 10.0 mi Calm Calm - N/A   Overcast
5:55 PM 27.3 °F - 21.7 °F 80% 29.99 in 10.0 mi Calm Calm - N/A   Overcast
6:15 PM 27.0 °F 21.6 °F 22.1 °F 82% 29.99 in 10.0 mi South 4.6 mph - N/A   Overcast
6:35 PM 26.6 °F 21.2 °F 21.7 °F 82% 29.99 in 10.0 mi SW 4.6 mph - N/A   Overcast
6:55 PM 26.4 °F 22.4 °F 21.9 °F 83% 30.00 in 10.0 mi SW 3.5 mph - N/A   Overcast
7:15 PM 26.4 °F 18.9 °F 21.9 °F 83% 30.02 in 7.0 mi WSW 6.9 mph - N/A   Overcast
7:35 PM 26.1 °F 20.5 °F 21.6 °F 83% 30.01 in 7.0 mi SW 4.6 mph - N/A   Overcast
7:55 PM 25.0 °F 19.3 °F 20.7 °F 84% 30.00 in 7.0 mi SSW 4.6 mph - N/A   Mostly Cloudy
8:15 PM 22.8 °F 18.2 °F 19.2 °F 86% 29.99 in 7.0 mi South 3.5 mph - N/A   Mostly Cloudy
8:35 PM 22.1 °F 14.7 °F 18.9 °F 87% 29.98 in 7.0 mi South 5.8 mph - N/A   Scattered Clouds
8:55 PM 22.6 °F 14.3 °F 19.4 °F 87% 29.96 in 7.0 mi South 6.9 mph - N/A   Scattered Clouds
9:15 PM 23.2 °F 15.0 °F 20.1 °F 88% 29.95 in 7.0 mi South 6.9 mph - N/A   Scattered Clouds
9:35 PM 23.7 °F 14.7 °F 20.3 °F 87% 29.94 in 5.0 mi South 8.1 mph - N/A   Clear
9:55 PM 23.5 °F 14.5 °F 20.3 °F 87% 29.93 in 5.0 mi South 8.1 mph - N/A   Clear
10:15 PM 23.9 °F 15.8 °F 20.7 °F 87% 29.93 in 5.0 mi SSW 6.9 mph - N/A   Clear
10:35 PM 23.4 °F 15.2 °F 20.3 °F 88% 29.93 in 5.0 mi SSW 6.9 mph - N/A   Clear
10:55 PM 23.4 °F 13.5 °F 20.3 °F 88% 29.92 in 5.0 mi SSW 9.2 mph - N/A   Clear
11:15 PM 23.4 °F 14.3 °F 20.3 °F 88% 29.90 in 5.0 mi South 8.1 mph - N/A   Clear
11:35 PM 23.4 °F 14.3 °F 20.3 °F 88% 29.89 in 5.0 mi South 8.1 mph - N/A   Mostly Cloudy
11:55 PM 23.9 °F 14.2 °F 21.0 °F 89% 29.89 in 5.0 mi South 9.2 mph - N/A   Overcast